Location: LDNL
(36.4545°S, 141.6685°E)
Time: 16:43:13
(UTC+10:00)

Transit 2A - Pass Details

Date: 28 January 2022
Orbit: 598 x 959 km, 66.7° (Epoch: 27 May)

Event Time Altitude Azimuth Distance (km) Brightness Sun altitude
Exits shadow 01:24:29 17° 215° (SW) 1,558 8.1 -34.9°
Drops below altitude 10° 01:26:35 10° 187° (S) 1,973 8.9 -35.0°
Sets 01:29:26 0° 168° (SSE) 2,879 9.9 -35.0°
